GROUP/SHIP,CRUISE_DESIGNATION,JD_GMT,DATE_DDMMYYY,TIME_HH:MM:SS,LAT_DEC_DEGREE,LONG_DEC_DEGREE,xCO2W_PPM,xCO2A_PPM,xCO2A_INTERPOLATED_PPM,PRES_EQUIL_hPa,PRES_SEALEVEL_hPa,EqTEMP_C,SST(TSG)_C,SAL(TSG)_PERMIL,fCO2W@SST_uATM,fCO2A_uATM,dfCO2_uATM,QC_FLAG,QC_SUBFLAG
PMEL/McArthurII,M20704,156.6964352,6/5/2007,16:42:52,37.1002,-124.7413,,386.8767654,,1016.14,1016.1,14.1,13.94,32.52,,,,2,
PMEL/McArthurII,M20704,156.6970833,6/5/2007,16:43:48,37.0988,-124.7441,,386.8169742,,1016.04,1016.12,14.11,13.95,32.52,,,,2,
PMEL/McArthurII,M20704,156.6977431,6/5/2007,16:44:45,37.0975,-124.7469,,386.7472518,,1016.31,1015.93,14.11,13.96,32.52,,,,2,
PMEL/McArthurII,M20704,156.6984028,6/5/2007,16:45:42,37.0961,-124.7497,,386.7470155,,1015.82,1015.95,14.12,13.96,32.52,,,,2,
PMEL/McArthurII,M20704,156.6990625,6/5/2007,16:46:39,37.0948,-124.7524,,386.8063393,,1016.33,1016.02,14.13,13.93,32.52,,,,2,
PMEL/McArthurII,M20704,156.6997222,6/5/2007,16:47:36,37.0935,-124.7551,,386.8259567,,1016.04,1016.15,14.13,13.89,32.52,,,,2,
PMEL/McArthurII,M20704,156.7003819,6/5/2007,16:48:33,37.0921,-124.7579,,386.8257206,,1015.96,1015.83,14.14,13.88,32.52,,,,2,
PMEL/McArthurII,M20704,156.7010417,6/5/2007,16:49:30,37.0908,-124.7606,,386.7559971,,1016.39,1016.05,14.13,13.88,32.52,,,,2,
PMEL/McArthurII,M20704,156.7017014,6/5/2007,16:50:27,37.0895,-124.7633,,386.7061267,,1016.12,1016.12,14.1,13.87,32.52,,,,2,
PMEL/McArthurII,M20704,156.7023727,6/5/2007,16:51:25,37.0881,-124.7661,,386.7952278,,1016.59,1015.94,14.07,13.87,32.52,,,,2,
PMEL/McArthurII,M20704,156.7060764,6/5/2007,16:56:45,37.0805,-124.7815,356.6354972,,386.7903375,1016.27,1016.04,14.03,13.86,32.51,348.3103533,380.5173294,-32.20697612,2,
PMEL/McArthurII,M20704,156.706713,6/5/2007,16:57:40,37.0792,-124.7841,356.3174996,,386.792732,1016.09,1016.12,14.03,13.86,32.51,348.0274209,380.5500013,-32.52258038,2,
PMEL/McArthurII,M20704,156.7073495,6/5/2007,16:58:35,37.0778,-124.7868,355.8208116,,386.7951264,1016.19,1016.07,14.03,13.85,32.51,347.3796013,380.5370724,-33.15747108,2,
PMEL/McArthurII,M20704,156.7079861,6/5/2007,16:59:30,37.0765,-124.7894,355.6120079,,386.7975209,1015.86,1016.09,14.04,13.85,32.51,347.0343226,380.5470073,-33.51268464,2,
PMEL/McArthurII,M20704,156.7086111,6/5/2007,17:00:24,37.0752,-124.792,355.9591316,,386.7998718,1016.67,1016.26,14.04,13.83,32.51,347.1417494,380.6210627,-33.47931332,2,
PMEL/McArthurII,M20704,156.7092477,6/5/2007,17:01:19,37.0739,-124.7946,356.0679982,,386.8022663,1016.23,1016.24,14.04,13.81,32.51,346.950923,380.6231502,-33.67222725,2
PMEL/McArthurII,M20704,156.7098843,6/5/2007,17:02:14,37.0726,-124.7972,355.7102843,,386.8046608,1016.76,1016.41,14.03,13.78,32.5,346.3743816,380.7008471,-34.3264655,2
PMEL/McArthurII,M20704,156.7105093,6/5/2007,17:03:08,37.0713,-124.7999,355.4319923,,386.8070117,1016.57,1016.22,14.02,13.77,32.5,346.0408886,380.6348031,-34.59391446,2
PMEL/McArthurII,M20704,156.7111574,6/5/2007,17:04:04,37.0699,-124.8025,355.143759,,386.8094497,1016.61,1016.14,14,13.79,32.5,346.3174975,380.5995919,-34.28209434,2
PMEL/McArthurII,M20704,156.7117824,6/5/2007,17:04:58,37.0686,-124.8052,354.776117,,386.8118006,1016.3,1015.97,13.98,13.81,32.5,346.4856333,380.5301782,-34.04454488,2
PMEL/McArthurII,M20704,156.7124306,6/5/2007,17:05:54,37.0672,-124.8078,354.3985329,,386.8142386,1016.12,1016.19,13.97,13.82,32.49,346.4854747,380.6122642,-34.12678954,2
PMEL/McArthurII,M20704,156.7130556,6/5/2007,17:06:48,37.0659,-124.8105,353.7628453,,386.8165895,1016.13,1016.24,13.98,13.81,32.49,345.5886489,380.6371805,-35.04853168,2
PMEL/McArthurII,M20704,156.7136921,6/5/2007,17:07:43,37.0646,-124.8131,353.4944634,,386.818984,1016.48,1016.02,13.99,13.8,32.49,344.9588778,380.5598139,-35.60093606,2
PMEL/McArthurII,M20704,156.7143287,6/5/2007,17:08:38,37.0633,-124.8158,353.3352822,,386.8213785,1016.52,1016.19,14,13.79,32.49,344.5704216,380.6302461,-36.05982446,2
PMEL/McArthurII,M20704,156.7149769,6/5/2007,17:09:34,37.0619,-124.8184,353.4044268,,386.8238165,1016.28,1016.18,14,13.78,32.49,344.4903571,380.632503,-36.1421459,2
PMEL/McArthurII,M20704,156.7156134,6/5/2007,17:10:29,37.0606,-124.8211,353.5529987,,386.8262109,1016.8,1016.29,14,13.78,32.49,344.6730095,380.6765472,-36.00353774,2
PMEL/McArthurII,M20704,156.71625,6/5/2007,17:11:24,37.0592,-124.8237,353.6320784,,386.8286054,1016.8,1016.14,13.99,13.76,32.49,344.5576353,380.6293448,-36.07170942,2
PMEL/McArthurII,M20704,156.7168866,6/5/2007,17:12:19,37.0579,-124.8263,353.5324612,,386.8309998,1017.02,1016.28,13.98,13.76,32.49,344.6558161,380.684759,-36.02894297,2
PMEL/McArthurII,M20704,156.7175347,6/5/2007,17:13:15,37.0565,-124.8289,353.0258028,,386.8334378,1016.02,1016.13,13.97,13.79,32.49,344.6895994,380.619373,-35.92977357,2
PMEL/McArthurII,M20704,156.7181597,6/5/2007,17:14:09,37.0551,-124.8316,352.4397317,,386.8357888,1016.44,1016.2,13.96,13.83,32.49,344.8649276,380.6336021,-35.76867449,2
PMEL/McArthurII,M20704,156.7188079,6/5/2007,17:15:05,37.0538,-124.8342,352.0621266,,386.8382268,1016.29,1016.17,13.95,13.86,32.49,345.06526,380.6136474,-35.54838744,2
PMEL/McArthurII,M20704,156.7194444,6/5/2007,17:16:00,37.0524,-124.8368,351.5256809,,386.8406212,1016.19,1016.15,13.98,13.87,32.49,344.234641,380.6047576,-36.37011666,2
PMEL/McArthurII,M20704,156.720081,6/5/2007,17:16:55,37.051,-124.8394,351.118293,,386.8430157,1016.75,1016.37,14.01,13.88,32.49,343.6137103,380.6868262,-37.07311591,2
PMEL/McArthurII,M20704,156.7207176,6/5/2007,17:17:50,37.0497,-124.842,351.4257065,,386.8454102,1016.83,1016.32,14.04,13.86,32.5,343.1696128,380.6775981,-37.50798531,2
PMEL/McArthurII,M20704,156.7213542,6/5/2007,17:18:45,37.0483,-124.8446,351.7231943,,386.8478046,1016.59,1016.38,14.05,13.84,32.49,343.0469606,380.7099873,-37.66302673,2
PMEL/McArthurII,M20704,156.7219792,6/5/2007,17:19:39,37.0469,-124.8472,351.9114834,,386.8501556,1016.92,1016.25,14.06,13.81,32.49,342.6096477,380.6740004,-38.06435272,2
PMEL/McArthurII,M20704,156.7226157,6/5/2007,17:20:34,37.0455,-124.8498,352.0501278,,386.85255,1016.26,1016.26,14.06,13.8,32.49,342.6048397,380.6837992,-38.07895942,2
PMEL/McArthurII,M20704,156.7232523,6/5/2007,17:21:29,37.0441,-124.8525,351.9306459,,386.8549445,1016.26,1016.23,14.03,13.8,32.49,342.9174557,380.6747851,-37.75732941,2
PMEL/McArthurII,M20704,156.7238889,6/5/2007,17:22:24,37.0428,-124.8551,351.5629631,,386.8573389,1016.59,1016.25,14.01,13.79,32.49,342.7153964,380.6883718,-37.97297547,2
PMEL/McArthurII,M20704,156.7245255,6/5/2007,17:23:19,37.0414,-124.8579,350.490387,,386.8597334,1016.56,1016.39,13.99,13.76,32.5,341.5803637,380.7547597,-39.17439599,2
PMEL/McArthurII,M20704,156.725162,6/5/2007,17:24:14,37.0401,-124.8605,349.5468685,,386.8621279,1016.35,1016.31,13.99,13.77,32.5,340.7758468,380.7231514,-39.94730458,2
PMEL/McArthurII,M20704,156.7257986,6/5/2007,17:25:09,37.0387,-124.8632,349.4869451,,386.8645223,1016.77,1016.19,13.98,13.78,32.5,340.9649948,380.6763795,-39.71138471,2
PMEL/McArthurII,M20704,156.7264236,6/5/2007,17:26:03,37.0374,-124.8658,349.7447282,,386.8668733,1016.39,1016.26,13.96,13.8,32.5,341.8183056,380.6979261,-38.87962047,2
PMEL/McArthurII,M20704,156.7270602,6/5/2007,17:26:58,37.0361,-124.8685,349.9627939,,386.8692677,1016.06,1016.24,13.96,13.81,32.5,342.1678325,380.6890493,-38.52121675,2
PMEL/McArthurII,M20704,156.7276968,6/5/2007,17:27:53,37.0347,-124.8711,350.5184202,,386.8716622,1016.54,1016.53,13.97,13.83,32.5,342.9505101,380.794012,-37.84350199,2
PMEL/McArthurII,M20704,156.7283333,6/5/2007,17:28:48,37.0334,-124.8738,350.6967771,,386.8740566,1017.21,1016.36,13.98,13.84,32.5,343.0637836,380.7282743,-37.66449072,2
PMEL/McArthurII,M20704,156.7289699,6/5/2007,17:29:43,37.032,-124.8765,351.0935573,,386.8764511,1016.97,1016.35,14,13.84,32.5,343.1550112,380.7268404,-37.57182925,2
PMEL/McArthurII,M20704,156.7296181,6/5/2007,17:30:39,37.0306,-124.8792,351.6094735,,386.8788891,1016.45,1016.43,14.02,13.86,32.5,343.6804205,380.7522374,-37.07181689,2
PMEL/McArthurII,M20704,156.7302546,6/5/2007,17:31:34,37.0293,-124.8818,351.7381942,,386.8812836,1016.53,1016.32,14.02,13.88,32.5,344.056259,380.7055653,-36.64930631,2
PMEL/McArthurII,M20704,156.7308912,6/5/2007,17:32:29,37.028,-124.8844,351.6683483,,386.883678,1016.48,1016.32,14.02,13.88,32.5,343.9879209,380.7079215,-36.72000065,2
PMEL/McArthurII,M20704,156.7315278,6/5/2007,17:33:24,37.0266,-124.887,351.7970701,,386.8860725,1016.77,1016.16,14.03,13.91,32.5,344.3436814,380.6386121,-36.29493072,2
PMEL/McArthurII,M20704,156.7321759,6/5/2007,17:34:20,37.0252,-124.8896,351.8165736,,386.8885105,1017.04,1016.33,14.05,13.94,32.5,344.5586514,380.6944106,-36.13575918,2
PMEL/McArthurII,M20704,156.7328009,6/5/2007,17:35:14,37.0238,-124.8923,351.8063044,,386.8908614,1016.56,1016.3,14.07,13.95,32.5,344.3877861,380.6816684,-36.2938823,2
PMEL/McArthurII,M20704,156.7334491,6/5/2007,17:36:10,37.0225,-124.8949,352.0839493,,386.8932994,1016.45,1016.18,14.1,13.96,32.5,344.3207422,380.6348943,-36.31415218,2
PMEL/McArthurII,M20704,156.7340741,6/5/2007,17:37:04,37.0211,-124.8975,352.3218946,,386.8956503,1016.94,1016.27,14.12,13.97,32.5,344.4339565,380.6676339,-36.2336774,2
PMEL/McArthurII,M20704,156.7347106,6/5/2007,17:37:59,37.0198,-124.9,352.778264,,386.8980448,1016.8,1016.3,14.13,13.98,32.5,344.8873071,380.6776709,-35.79036378,2
PMEL/McArthurII,M20704,156.7353472,6/5/2007,17:38:54,37.0184,-124.9027,353.194922,,386.9004393,1016.38,1016.5,14.14,13.98,32.5,345.2160579,380.7558394,-35.53978153,2
PMEL/McArthurII,M20704,156.7359954,6/5/2007,17:39:50,37.017,-124.9053,353.462647,,386.9028773,1016.63,1016.33,14.15,13.98,32.5,345.2718153,380.6937976,-35.42198226,2
PMEL/McArthurII,M20704,156.7366204,6/5/2007,17:40:44,37.0156,-124.9079,353.7303861,,386.9052282,1016.66,1016.39,14.16,13.98,32.5,345.4065513,380.7188549,-35.3123036,2
PMEL/McArthurII,M20704,156.7372685,6/5/2007,17:41:40,37.0142,-124.9105,353.8789702,,386.9076662,1016.81,1016.3,14.17,13.99,32.5,345.5174887,380.6834445,-35.16595581,2
PMEL/McArthurII,M20704,156.7379051,6/5/2007,17:42:35,37.0128,-124.9132,354.1169201,,386.9100607,1016.63,1016.37,14.17,14,32.5,345.9184525,380.7086402,-34.79018765,2
PMEL/McArthurII,M20704,156.7385417,6/5/2007,17:43:30,37.0115,-124.9158,353.927934,,386.9124551,1016.82,1016.13,14.17,14,32.5,345.6511235,380.6200181,-34.96889458,2
PMEL/McArthurII,M20704,156.7391782,6/5/2007,17:44:25,37.0102,-124.9184,353.9077366,,386.9148496,1016.66,1016.04,14.17,14.01,32.5,345.7447762,380.5845588,-34.8397826,2
PMEL/McArthurII,M20704,156.7398148,6/5/2007,17:45:20,37.0089,-124.9211,353.6889619,,386.9172441,1016.67,1016.22,14.18,14.01,32.5,345.4454152,380.6551487,-35.20973346,2
PMEL/McArthurII,M20704,156.740463,6/5/2007,17:46:16,37.0076,-124.9237,353.5098951,,386.9196821,1016.51,1016.26,14.19,14,32.5,344.9927131,380.6764082,-35.6836951,2
PMEL/McArthurII,M20704,156.741088,6/5/2007,17:47:10,37.0063,-124.9263,353.5592046,,386.922033,1016.43,1016.31,14.19,13.98,32.5,344.7699436,380.7050642,-35.9351206,2
PMEL/McArthurII,M20704,156.7417361,6/5/2007,17:48:06,37.005,-124.929,353.5092125,,386.924471,1016.63,1016.32,14.19,13.97,32.5,344.5806698,380.7149449,-36.13427509,2
PMEL/McArthurII,M20704,156.7423611,6/5/2007,17:49:00,37.0038,-124.9316,353.5386644,,386.9268219,1016.55,1016.26,14.19,13.93,32.5,344.0136149,380.7092546,-36.69563977,2
PMEL/McArthurII,M20704,156.7429977,6/5/2007,17:49:55,37.0025,-124.9342,353.4787491,,386.9292164,1016.26,1016.23,14.18,13.91,32.5,343.8045077,380.7075955,-36.90308783,2
PMEL/McArthurII,M20704,156.7436343,6/5/2007,17:50:50,37.0013,-124.9369,353.2103233,,386.9316108,1016.61,1016.35,14.17,13.89,32.5,343.4440068,380.762791,-37.31878417,2
PMEL/McArthurII,M20704,156.7612963,6/5/2007,18:16:16,36.966,-125.0105,,386.9813296,,1016.84,1016.68,14.3,14.13,32.5,,,,2
PMEL/McArthurII,M20704,156.761956,6/5/2007,18:17:13,36.9647,-125.0132,,386.9806263,,1016.48,1016.7,14.31,14.13,32.5,,,,2
PMEL/McArthurII,M20704,156.7626042,6/5/2007,18:18:09,36.9633,-125.016,,386.9700066,,1017.21,1016.59,14.31,14.15,32.51,,,,2
PMEL/McArthurII,M20704,156.7632639,6/5/2007,18:19:06,36.962,-125.0188,,387.0288758,,1017.29,1016.75,14.32,14.17,32.51,,,,2
PMEL/McArthurII,M20704,156.7639236,6/5/2007,18:20:03,36.9606,-125.0215,,387.0083148,,1017.3,1016.68,14.32,14.12,32.51,,,,2
PMEL/McArthurII,M20704,156.7645949,6/5/2007,18:21:01,36.9592,-125.0243,,386.9976704,,1016.65,1016.74,14.34,14.16,32.51,,,,2
PMEL/McArthurII,M20704,156.7652546,6/5/2007,18:21:58,36.9578,-125.0271,,386.9473246,,1016.55,1016.83,14.34,14.18,32.51,,,,2
PMEL/McArthurII,M20704,156.7659144,6/5/2007,18:22:55,36.9565,-125.0298,,386.9168364,,1017.12,1016.8,14.32,14.12,32.51,,,,2
PMEL/McArthurII,M20704,156.7665856,6/5/2007,18:23:53,36.9551,-125.0326,,387.0253329,,1016.63,1016.82,14.34,14.11,32.51,,,,2
PMEL/McArthurII,M20704,156.7672454,6/5/2007,18:24:50,36.9537,-125.0354,,386.9948446,,1017.1,1016.74,14.35,14.1,32.5,,,,2
PMEL/McArthurII,M20704,156.7709491,6/5/2007,18:30:10,36.9469,-125.0509,357.0089414,,386.9851162,1016.8,1016.81,14.31,14.19,32.5,349.5797773,380.8786671,-31.2988898,2
PMEL/McArthurII,M20704,156.7715856,6/5/2007,18:31:05,36.9463,-125.0524,356.5915313,,386.9851187,1016.53,1017.04,14.34,14.2,32.49,348.9497018,380.9621006,-32.01239883,2
PMEL/McArthurII,M20704,156.7722338,6/5/2007,18:32:01,36.9461,-125.0532,356.7598506,,386.9851212,1016.87,1017.15,14.36,14.21,32.49,349.0004825,381.0000667,-31.99958413,2
PMEL/McArthurII,M20704,156.7728704,6/5/2007,18:32:56,36.946,-125.0537,357.0770889,,386.9851237,1016.94,1017.17,14.37,14.22,32.49,349.3145413,381.0039067,-31.68936544,2
PMEL/McArthurII,M20704,156.7735069,6/5/2007,18:33:51,36.9459,-125.054,357.1659899,,386.9851262,1016.73,1017.3,14.38,14.22,32.5,349.2978073,381.0532319,-31.75542462,2
PMEL/McArthurII,M20704,156.7741319,6/5/2007,18:34:45,36.9459,-125.0542,357.4335912,,386.9851286,1017.1,1017.29,14.39,14.23,32.5,349.5527936,381.0456952,-31.49290158,2
PMEL/McArthurII,M20704,156.7747685,6/5/2007,18:35:40,36.9459,-125.0542,357.8897996,,386.9851311,1016.58,1017.32,14.4,14.23,32.5,349.8603473,381.0570722,-31.19672489,2
PMEL/McArthurII,M20704,156.7754051,6/5/2007,18:36:35,36.946,-125.0543,358.3062919,,386.9851336,1016.84,1017.19,14.41,14.24,32.5,350.2189746,381.0040349,-30.7850603,2
PMEL/McArthurII,M20704,156.7760417,6/5/2007,18:37:30,36.9461,-125.0542,359.0404476,,386.9851361,1017.02,1017.18,14.41,14.24,32.5,350.9332902,381.0002458,-30.06695562,2
PMEL/McArthurII,M20704,156.7766782,6/5/2007,18:38:25,36.9461,-125.0542,359.3675806,,386.9851385,1017.47,1017.24,14.41,14.25,32.5,351.4205301,381.0192452,-29.5987151,2
PMEL/McArthurII,M20704,156.7773148,6/5/2007,18:39:20,36.9461,-125.0541,359.1487218,,386.985141,1017.34,1017.27,14.42,14.24,32.5,350.9210232,381.0343744,-30.11335124,2
PMEL/McArthurII,M20704,156.7779514,6/5/2007,18:40:15,36.9461,-125.0541,359.3070907,,386.9851435,1017.26,1017.22,14.43,14.24,32.5,350.9087783,381.0154192,-30.10664091,2
PMEL/McArthurII,M20704,156.778588,6/5/2007,18:41:10,36.9462,-125.0542,359.3959689,,386.985146,1016.88,1017.27,14.43,14.25,32.5,351.1593645,381.0306272,-29.87126262,2
PMEL/McArthurII,M20704,156.7792361,6/5/2007,18:42:06,36.9462,-125.0544,359.504691,,386.9851485,1017.14,1017.17,14.43,14.24,32.5,351.0843484,380.9964665,-29.9121181,2
PMEL/McArthurII,M20704,156.7798611,6/5/2007,18:43:00,36.9463,-125.0546,359.4347472,,386.985151,1017.18,1017.26,14.44,14.24,32.5,350.8979392,381.0305927,-30.13265354,2
PMEL/McArthurII,M20704,156.7805093,6/5/2007,18:43:56,36.9463,-125.0547,359.4144209,,386.9851535,1017.04,1017.26,14.44,14.24,32.5,350.8780883,381.0305952,-30.15250689,2
PMEL/McArthurII,M20704,156.7811458,6/5/2007,18:44:51,36.9464,-125.0548,359.5430018,,386.985156,1016.99,1017.3,14.44,14.24,32.5,351.0176406,381.0457637,-30.02812311,2
PMEL/McArthurII,M20704,156.7817824,6/5/2007,18:45:46,36.9464,-125.0549,359.4829775,,386.9851585,1016.95,1017.2,14.44,14.25,32.5,351.0703094,381.0040987,-29.93378928,2
PMEL/McArthurII,M20704,156.7824074,6/5/2007,18:46:40,36.9464,-125.0549,359.8895039,,386.9851609,1017.15,1017.22,14.44,14.25,32.5,351.4744601,381.0116842,-29.53722404,2
PMEL/McArthurII,M20704,156.7830556,6/5/2007,18:47:36,36.9465,-125.0549,359.9783643,,386.9851634,1017.53,1017.29,14.44,14.25,32.5,351.585776,381.0382274,-29.45245143,2
PMEL/McArthurII,M20704,156.7836806,6/5/2007,18:48:30,36.9466,-125.055,359.9084202,,386.9851659,1016.94,1017.24,14.44,14.25,32.5,351.49994,381.0192721,-29.51933208,2
PMEL/McArthurII,M20704,156.7843171,6/5/2007,18:49:25,36.9466,-125.0551,359.9377305,,386.9851683,1016.79,1017.12,14.44,14.25,32.5,351.4865754,380.9737761,-29.48720078,2
PMEL/McArthurII,M20704,156.7849537,6/5/2007,18:50:20,36.9466,-125.0552,359.8777054,,386.9851708,1017.64,1017.15,14.45,14.25,32.5,351.2887493,380.9851532,-29.69640386,2
PMEL/McArthurII,M20704,156.7856019,6/5/2007,18:51:16,36.9466,-125.0553,360.1551576,,386.9851734,1016.97,1017.25,14.44,14.26,32.5,351.8910622,381.0193166,-29.12825438,2
PMEL/McArthurII,M20704,156.7862269,6/5/2007,18:52:10,36.9466,-125.0554,359.956177,,386.9851758,1017.65,1017.23,14.45,14.25,32.5,351.3933668,381.0154904,-29.6221236,2
PMEL/McArthurII,M20704,156.786875,6/5/2007,18:53:06,36.9467,-125.0555,359.5884426,,386.9851783,1017.3,1017.28,14.45,14.26,32.5,351.1979989,381.0306961,-29.83269718,2
PMEL/McArthurII,M20704,156.7875116,6/5/2007,18:54:01,36.9467,-125.0555,359.6078285,,386.9851808,1017.12,1017.33,14.45,14.25,32.5,351.0881341,381.0534106,-29.96527652,2
PMEL/McArthurII,M20704,156.7881366,6/5/2007,18:54:55,36.9467,-125.0556,359.6669254,,386.9851832,1017.09,1017.38,14.45,14.23,32.5,350.870877,381.0798727,-30.20899565,2
PMEL/McArthurII,M20704,156.7887847,6/5/2007,18:55:51,36.9467,-125.0557,359.6565249,,386.9851858,1017.24,1017.28,14.45,14.24,32.5,350.9719749,381.03821,-30.06623518,2
PMEL/McArthurII,M20704,156.7894213,6/5/2007,18:56:46,36.9467,-125.0557,359.4873241,,386.9851883,1017.12,1017.28,14.45,14.25,32.5,350.9529702,381.0344603,-30.08149015,2
PMEL/McArthurII,M20704,156.7900463,6/5/2007,18:57:40,36.9467,-125.0558,359.7151538,,386.9851907,1016.86,1017.43,14.44,14.25,32.5,351.3775821,381.0913357,-29.71375355,2
PMEL/McArthurII,M20704,156.7906829,6/5/2007,18:58:35,36.9467,-125.0558,359.6452092,,386.9851932,1017.42,1017.4,14.44,14.25,32.5,351.2987434,381.0799635,-29.78122017,2
PMEL/McArthurII,M20704,156.7913194,6/5/2007,18:59:30,36.9467,-125.0559,359.6348177,,386.9851957,1017.2,1017.43,14.44,14.25,32.5,351.2990807,381.0913406,-29.79225988,2
PMEL/McArthurII,M20704,156.791956,6/5/2007,19:00:25,36.9467,-125.0559,359.6542022,,386.9851981,1017.34,1017.32,14.45,14.25,32.5,351.1299299,381.0496362,-29.91970625,2
PMEL/McArthurII,M20704,156.792581,6/5/2007,19:01:19,36.9467,-125.0559,359.6041185,,386.9852006,1017.48,1017.36,14.45,14.25,32.5,351.0949969,381.0648047,-29.96980783,2
PMEL/McArthurII,M20704,156.7932292,6/5/2007,19:02:15,36.9468,-125.0559,359.3753669,,386.9852031,1017.18,1017.3,14.45,14.27,32.5,351.1430666,381.0345469,-29.89148022,2
PMEL/McArthurII,M20704,156.7938542,6/5/2007,19:03:09,36.9468,-125.056,359.3848363,,386.9852056,1017.45,1017.32,14.45,14.27,32.5,351.1593143,381.0421323,-29.88281807,2
PMEL/McArthurII,M20704,156.7944907,6/5/2007,19:04:04,36.9468,-125.056,359.2553478,,386.985208,1017.53,1017.21,14.45,14.26,32.5,350.8481091,381.0041846,-30.15607552,2
PMEL/McArthurII,M20704,156.7951273,6/5/2007,19:04:59,36.9468,-125.056,359.463307,,386.9852105,1017.54,1017.23,14.46,14.24,32.5,350.6165054,381.0192767,-30.40277139,2
PMEL/McArthurII,M20704,156.7957639,6/5/2007,19:05:54,36.9468,-125.056,359.770511,,386.985213,1017.1,1017.28,14.47,14.25,32.5,350.9304519,381.0344847,-30.10403276,2
PMEL/McArthurII,M20704,156.7964005,6/5/2007,19:06:49,36.9469,-125.056,360.0181619,,386.9852155,1016.77,1017.23,14.46,14.25,32.5,351.3042253,381.0155294,-29.71130415,2
PMEL/McArthurII,M20704,156.797037,6/5/2007,19:07:44,36.9469,-125.0561,359.9978436,,386.985218,1017.83,1017.29,14.45,14.25,32.5,351.4550524,381.0382811,-29.58322871,2
PMEL/McArthurII,M20704,156.7976852,6/5/2007,19:08:40,36.947,-125.0561,359.818724,,386.9852205,1017.76,1017.3,14.45,14.25,32.5,351.2836166,381.0420751,-29.75845855,2
PMEL/McArthurII,M20704,156.7983102,6/5/2007,19:09:34,36.947,-125.0561,359.8877365,,386.9852229,1016.88,1017.17,14.45,14.25,32.5,351.3055409,380.9927876,-29.68724663,2
PMEL/McArthurII,M20704,156.7989468,6/5/2007,19:10:29,36.947,-125.0561,359.8574953,,386.9852254,1016.82,1017.21,14.45,14.25,32.5,351.2900014,381.0079562,-29.71795475,2
PMEL/McArthurII,M20704,156.7995833,6/5/2007,19:11:24,36.9471,-125.0561,359.6684652,,386.9852279,1017.3,1017.17,14.45,14.26,32.5,351.2377101,380.989038,-29.75132784,2
PMEL/McArthurII,M20704,156.8002199,6/5/2007,19:12:19,36.9471,-125.0562,359.9061811,,386.9852304,1017.09,1017.31,14.45,14.27,32.5,351.6653942,381.0383653,-29.372971,2
PMEL/McArthurII,M20704,156.8008449,6/5/2007,19:13:13,36.9471,-125.0563,359.9751907,,386.9852328,1017.28,1017.22,14.46,14.28,32.5,351.6979968,381.0004848,-29.30248802,2
PMEL/McArthurII,M20704,156.8014931,6/5/2007,19:14:09,36.9471,-125.0564,359.7960797,,386.9852354,1017.07,1017.27,14.47,14.28,32.5,351.3907201,381.019445,-29.62872489,2
PMEL/McArthurII,M20704,156.8021296,6/5/2007,19:15:04,36.9471,-125.0564,359.9940929,,386.9852378,1017.41,1017.28,14.47,14.29,32.5,351.7341467,381.0194777,-29.28533105,2
PMEL/McArthurII,M20704,156.8027662,6/5/2007,19:15:59,36.9472,-125.0566,360.3310384,,386.9852403,1017.38,1017.3,14.48,14.31,32.51,352.2138255,381.0195671,-28.80574152,2
PMEL/McArthurII,M20704,156.8034028,6/5/2007,19:16:54,36.9472,-125.0567,360.4893489,,386.9852428,1016.86,1017.31,14.48,14.31,32.51,352.3721264,381.023361,-28.65123468,2
PMEL/McArthurII,M20704,156.8040509,6/5/2007,19:17:50,36.9473,-125.0568,360.5384867,,386.9852453,1017.06,1017.24,14.49,14.3,32.51,352.0988849,381.0005885,-28.90170358,2
PMEL/McArthurII,M20704,156.8046759,6/5/2007,19:18:44,36.9473,-125.0569,360.8853524,,386.9852478,1016.64,1017.3,14.5,14.31,32.51,352.4554659,381.0195744,-28.56410846,2
PMEL/McArthurII,M20704,156.8053241,6/5/2007,19:19:40,36.9474,-125.057,361.0535699,,386.9852503,1016.34,1017.2,14.5,14.3,32.51,352.437925,380.9854271,-28.54750211,2
PMEL/McArthurII,M20704,156.8059606,6/5/2007,19:20:35,36.9474,-125.057,361.3011819,,386.9852528,1016.76,1017.17,14.51,14.31,32.51,352.6658476,380.9702891,-28.30444145,2
PMEL/McArthurII,M20704,156.8065972,6/5/2007,19:21:30,36.9475,-125.0571,361.4694023,,386.9852553,1017.27,1017.16,14.51,14.31,32.51,352.8265942,380.9665,-28.13990573,2
PMEL/McArthurII,M20704,156.8072338,6/5/2007,19:22:25,36.9476,-125.0572,361.4292284,,386.9852577,1016.76,1017.2,14.51,14.3,32.51,352.654568,380.9854345,-28.33086644,2
PMEL/McArthurII,M20704,156.8078704,6/5/2007,19:23:20,36.9476,-125.0574,361.6073685,,386.9852602,1016.81,1017.16,14.51,14.31,32.51,352.9613112,380.9665049,-28.00519367,2
PMEL/McArthurII,M20704,156.8084954,6/5/2007,19:24:14,36.9476,-125.0575,361.5175866,,386.9852627,1016.28,1017.17,14.5,14.32,32.51,353.1744623,380.9665307,-27.79206845,2
PMEL/McArthurII,M20704,156.8261458,6/5/2007,19:49:39,36.9488,-125.063,,386.9745455,,1016.76,1017.28,14.56,14.38,32.51,,,,2
PMEL/McArthurII,M20704,156.8268056,6/5/2007,19:50:36,36.9489,-125.0635,,386.9326158,,1017.09,1017.16,14.58,14.4,32.51,,,,2
PMEL/McArthurII,M20704,156.8274653,6/5/2007,19:51:33,36.9489,-125.0641,,387.0692968,,1017.12,1017.24,14.57,14.43,32.51,,,,2
PMEL/McArthurII,M20704,156.828125,6/5/2007,19:52:30,36.949,-125.0649,,387.0670584,,1017.02,1017.18,14.58,14.43,32.51,,,,2
PMEL/McArthurII,M20704,156.8287847,6/5/2007,19:53:27,36.949,-125.0656,,386.9457459,,1017.2,1017.22,14.6,14.45,32.51,,,,2
PMEL/McArthurII,M20704,156.8294444,6/5/2007,19:54:24,36.9491,-125.0663,,386.9435074,,1017.01,1017.29,14.61,14.46,32.51,,,,2
PMEL/McArthurII,M20704,156.8301042,6/5/2007,19:55:21,36.9491,-125.0669,,386.9908832,,1016.59,1017.26,14.63,14.45,32.51,,,,2
PMEL/McArthurII,M20704,156.8307523,6/5/2007,19:56:17,36.9492,-125.0675,,386.9787611,,1017.04,1017.24,14.65,14.46,32.51,,,,2